カタログに戻る

STARLINK-38070

運用中通信SSO
NORAD 69990·PAYLOAD·🇺🇸 United States

打ち上げ Jul 11, 2026 から Vandenberg Space Force Base

Loading…

次のパス (今後24時間)

TLE

最新Source: CelesTrak SupGP

元期: Sep 14, 2026, 23:21 UTC

1 69990C 26159R   26257.97340278 -.02539900  00000+0 -38299-1 0  2576
2 69990  97.2849  99.7506 0001744 104.1266 210.3083 15.56100945    10

AllMySatでSTARLINK-38070をリアルタイム追跡

Download on the App Store